Location: Unspecified
(35.7250°N, 0.0000°E)
Time: 03:54:57
(UTC+00:00)

Explorer 7 - Pass Details

Date: 25 June 2019
Orbit: 485 x 680 km, 50.3° (Epoch: 21 July)

Event Time Altitude Azimuth Distance (km) Brightness Sun altitude
Rises 13:57:47 0° 309° (NW) 2,961 10.7 62.2°
Reaches altitude 10° 14:00:05 10° 309° (NW) 2,071 10.1 61.8°
Maximum altitude 14:04:54 89° 221° (SW) 676 8.6 60.9°
Drops below altitude 10° 14:09:49 10° 131° (SE) 2,108 9.7 59.9°
Sets 14:12:11 0° 132° (SE) 3,020 10.4 59.4°
